Location: Strawberry
(45.6646°N, 111.9596°W)
Time: 23:34:21
(UTC+00:00)

Vanguard 1 Rocket - Pass Details

Date: 05 October 2022
Orbit: 650 x 4225 km, 34.3° (Epoch: 05 December)

Event Time Altitude Azimuth Distance (km) Brightness Sun altitude
Rises 02:35:44 0° 235° (SW) 8,373 13.0 -17.1°
Reaches altitude 10° 02:42:16 10° 231° (SW) 7,108 12.4 -18.3°
Maximum altitude 03:02:30 46° 167° (SSE) 3,429 10.0 -21.7°
Enters shadow 03:09:02 31° 118° (ESE) 3,431 9.7 -22.8°
